MSR742 LCLK-HECA

Flight info

Callsign MSR742
Flight time 0h 59m
Altitude 33000
Route EMEDA DCT STEPA N71 LAKTO N307 MELDO A16 CVO
Aircraft A320/M-SDE3FGHIRWY/LB1

Departure

Time 2026-05-05 11:12
Airport Larnaca International Airport (LCLK)

Arrival

Time 2026-05-05 12:11
Airport Cairo International Airport (HECA)
Time Latitude Longitude Altitude Speed Heading
2026-05-05 10:52 34.86983 33.61094 22 ft 0 kts 225°
2026-05-05 11:02 34.86990 33.61103 20 ft 2 kts 221°
2026-05-05 11:02 34.87002 33.61116 22 ft 2 kts 221°
2026-05-05 11:02 34.87015 33.61129 20 ft 2 kts 217°
2026-05-05 11:03 34.87028 33.61140 23 ft 2 kts 210°
2026-05-05 11:03 34.87043 33.61150 22 ft 2 kts 197°
2026-05-05 11:03 34.87059 33.61153 22 ft 2 kts 167°
2026-05-05 11:03 34.87073 33.61146 24 ft 2 kts 137°
2026-05-05 11:04 34.87078 33.61141 23 ft 0 kts 134°
2026-05-05 11:05 34.87069 33.61151 23 ft 5 kts 134°
2026-05-05 11:06 34.87033 33.61196 20 ft 10 kts 134°
2026-05-05 11:06 34.86967 33.61273 20 ft 15 kts 137°
2026-05-05 11:06 34.86890 33.61361 21 ft 13 kts 131°
2026-05-05 11:06 34.86907 33.61463 20 ft 15 kts 46°
2026-05-05 11:07 34.86985 33.61556 20 ft 17 kts 45°
2026-05-05 11:07 34.87071 33.61662 21 ft 19 kts 45°
2026-05-05 11:07 34.87170 33.61782 21 ft 21 kts 45°
2026-05-05 11:07 34.87278 33.61917 21 ft 23 kts 44°
2026-05-05 11:08 34.87399 33.62064 20 ft 26 kts 45°
2026-05-05 11:08 34.87532 33.62226 20 ft 28 kts 45°
2026-05-05 11:08 34.87661 33.62383 20 ft 25 kts 45°
2026-05-05 11:08 34.87788 33.62540 22 ft 27 kts 45°
2026-05-05 11:09 34.87928 33.62708 20 ft 30 kts 44°
2026-05-05 11:09 34.88070 33.62878 20 ft 21 kts 45°
2026-05-05 11:09 34.88180 33.63012 20 ft 24 kts 46°
2026-05-05 11:09 34.88298 33.63165 20 ft 26 kts 46°
2026-05-05 11:10 34.88379 33.63264 20 ft 15 kts 44°
2026-05-05 11:10 34.88431 33.63325 22 ft 9 kts 44°
2026-05-05 11:10 34.88434 33.63396 21 ft 11 kts 132°
2026-05-05 11:10 34.88376 33.63465 21 ft 13 kts 135°
2026-05-05 11:11 34.88320 33.63528 20 ft 10 kts 152°
2026-05-05 11:11 34.88261 33.63481 20 ft 13 kts 226°
2026-05-05 11:11 34.88078 33.63256 20 ft 71 kts 225°
2026-05-05 11:11 34.87586 33.62654 21 ft 127 kts 225°
2026-05-05 11:12 34.86849 33.61767 95 ft 165 kts 225°
2026-05-05 11:12 34.86020 33.60756 611 ft 172 kts 224°
2026-05-05 11:12 34.85158 33.59705 1253 ft 178 kts 222°
2026-05-05 11:12 34.84267 33.58619 1890 ft 185 kts 226°
2026-05-05 11:13 34.83316 33.57426 2176 ft 208 kts 228°
2026-05-05 11:13 34.82271 33.56075 2496 ft 231 kts 226°
2026-05-05 11:13 34.80863 33.54933 2861 ft 259 kts 200°
2026-05-05 11:13 34.79027 33.54698 3537 ft 274 kts 171°
2026-05-05 11:14 34.77250 33.55533 4426 ft 280 kts 146°
2026-05-05 11:14 34.75698 33.57011 5289 ft 289 kts 142°
2026-05-05 11:14 34.74137 33.58584 6232 ft 289 kts 142°
2026-05-05 11:14 34.72589 33.60093 7233 ft 289 kts 143°
2026-05-05 11:15 34.70974 33.61575 8076 ft 294 kts 145°
2026-05-05 11:15 34.69268 33.62977 8913 ft 297 kts 155°
2026-05-05 11:15 34.67302 33.63702 9758 ft 296 kts 178°
2026-05-05 11:15 34.65265 33.63461 10464 ft 299 kts 200°
2026-05-05 11:16 34.63344 33.62339 10714 ft 317 kts 213°
2026-05-05 11:16 34.61378 33.60958 11104 ft 332 kts 214°
2026-05-05 11:16 34.59359 33.59534 11764 ft 338 kts 214°
2026-05-05 11:16 34.57308 33.58095 12446 ft 344 kts 215°
2026-05-05 11:17 34.55218 33.56636 13139 ft 349 kts 216°
2026-05-05 11:17 34.53109 33.55173 13847 ft 353 kts 216°
2026-05-05 11:17 34.51684 33.54188 14273 ft 355 kts 216°
2026-05-05 11:17 34.48794 33.52199 15149 ft 359 kts 217°
2026-05-05 11:18 34.46639 33.50722 15800 ft 361 kts 217°
2026-05-05 11:18 34.45157 33.49709 16254 ft 363 kts 217°
2026-05-05 11:18 34.42953 33.48202 16916 ft 365 kts 218°
2026-05-05 11:18 34.40729 33.46677 17579 ft 368 kts 218°
2026-05-05 11:19 34.38494 33.45144 18239 ft 371 kts 219°
2026-05-05 11:19 34.35511 33.43098 19012 ft 373 kts 219°
2026-05-05 11:19 34.33984 33.42048 19410 ft 375 kts 219°
2026-05-05 11:19 34.31698 33.40474 19969 ft 380 kts 219°
2026-05-05 11:20 34.29392 33.38888 20514 ft 384 kts 219°
2026-05-05 11:20 34.27049 33.37283 21055 ft 388 kts 219°
2026-05-05 11:20 34.24683 33.35665 21560 ft 393 kts 219°
2026-05-05 11:20 34.22289 33.34028 22079 ft 397 kts 219°
2026-05-05 11:21 34.19873 33.32376 22551 ft 401 kts 219°
2026-05-05 11:21 34.17462 33.30728 23092 ft 404 kts 218°
2026-05-05 11:21 34.15001 33.29050 23613 ft 408 kts 218°
2026-05-05 11:21 34.12519 33.27364 24063 ft 411 kts 218°
2026-05-05 11:22 34.10022 33.25669 24526 ft 413 kts 218°
2026-05-05 11:22 34.07515 33.23964 24994 ft 414 kts 218°
2026-05-05 11:22 34.05000 33.22254 25460 ft 416 kts 218°
2026-05-05 11:22 34.02478 33.20538 25921 ft 417 kts 218°
2026-05-05 11:23 33.99949 33.18820 26360 ft 418 kts 217°
2026-05-05 11:23 33.97415 33.17101 26837 ft 418 kts 217°
2026-05-05 11:23 33.94875 33.15377 27264 ft 420 kts 217°
2026-05-05 11:23 33.92327 33.13644 27641 ft 423 kts 217°
2026-05-05 11:24 33.89764 33.11900 28040 ft 425 kts 217°
2026-05-05 11:24 33.87178 33.10145 28441 ft 427 kts 217°
2026-05-05 11:24 33.84587 33.08393 28857 ft 429 kts 216°
2026-05-05 11:24 33.81978 33.06629 29245 ft 430 kts 216°
2026-05-05 11:25 33.79369 33.04865 29675 ft 431 kts 216°
2026-05-05 11:25 33.76750 33.03095 30078 ft 432 kts 216°
2026-05-05 11:25 33.74132 33.01328 30422 ft 434 kts 216°
2026-05-05 11:25 33.71520 32.99567 30754 ft 435 kts 216°
2026-05-05 11:26 33.68843 32.97766 31093 ft 437 kts 216°
2026-05-05 11:26 33.66184 32.95979 31436 ft 437 kts 216°
2026-05-05 11:26 33.63569 32.94219 31893 ft 435 kts 216°
2026-05-05 11:26 33.60937 32.92447 32390 ft 433 kts 216°
2026-05-05 11:27 33.58320 32.90687 32846 ft 431 kts 216°
2026-05-05 11:27 33.55704 32.88930 32988 ft 429 kts 216°
2026-05-05 11:27 33.53078 32.87165 33015 ft 437 kts 216°
2026-05-05 11:28 33.47696 32.83546 33017 ft 449 kts 216°
2026-05-05 11:28 33.42231 32.79897 33017 ft 450 kts 216°
2026-05-05 11:29 33.36751 32.76250 33022 ft 450 kts 216°
2026-05-05 11:29 33.31279 32.72598 33024 ft 450 kts 216°
2026-05-05 11:30 33.25808 32.68947 32998 ft 450 kts 216°
2026-05-05 11:30 33.20341 32.65303 33013 ft 450 kts 216°
2026-05-05 11:31 33.14903 32.61694 33026 ft 450 kts 216°
2026-05-05 11:31 33.09434 32.58068 33023 ft 450 kts 216°
2026-05-05 11:32 33.04013 32.54470 33006 ft 450 kts 216°
2026-05-05 11:32 32.98483 32.50808 33018 ft 451 kts 216°
2026-05-05 11:33 32.92992 32.47185 33027 ft 451 kts 216°
2026-05-05 11:33 32.87498 32.43561 33005 ft 452 kts 216°
2026-05-05 11:34 32.82233 32.39615 33021 ft 441 kts 227°
2026-05-05 11:34 32.78402 32.34132 33026 ft 428 kts 241°
2026-05-05 11:35 32.75019 32.28300 33028 ft 429 kts 240°
2026-05-05 11:35 32.71631 32.22509 33016 ft 429 kts 240°
2026-05-05 11:36 32.68233 32.16705 33032 ft 429 kts 240°
2026-05-05 11:36 32.64822 32.10876 33049 ft 429 kts 240°
2026-05-05 11:37 32.61416 32.05060 33043 ft 429 kts 240°
2026-05-05 11:37 32.58020 31.99240 33055 ft 429 kts 240°
2026-05-05 11:38 32.54619 31.93421 33049 ft 429 kts 241°
2026-05-05 11:38 32.51217 31.87607 33082 ft 429 kts 241°
2026-05-05 11:39 32.47819 31.81810 33074 ft 428 kts 241°
2026-05-05 11:39 32.44420 31.76028 33070 ft 428 kts 241°
2026-05-05 11:40 32.41023 31.70252 33044 ft 428 kts 242°
2026-05-05 11:40 32.37641 31.64520 33055 ft 427 kts 242°
2026-05-05 11:41 32.34239 31.58759 33066 ft 426 kts 242°
2026-05-05 11:41 32.30851 31.53022 33072 ft 426 kts 242°
2026-05-05 11:42 32.27450 31.47272 33078 ft 427 kts 242°
2026-05-05 11:42 32.24034 31.41530 33063 ft 426 kts 242°
2026-05-05 11:43 32.20627 31.35795 33080 ft 426 kts 242°
2026-05-05 11:43 32.17217 31.30063 33087 ft 426 kts 242°
2026-05-05 11:44 32.13819 31.24349 33088 ft 425 kts 242°
2026-05-05 11:44 32.10421 31.18640 33085 ft 425 kts 242°
2026-05-05 11:45 32.07037 31.12992 33056 ft 426 kts 240°
2026-05-05 11:45 32.04957 31.10407 33061 ft 441 kts 226°
2026-05-05 11:45 32.02291 31.08515 33067 ft 459 kts 211°
2026-05-05 11:45 31.99140 31.07545 33069 ft 480 kts 194°
2026-05-05 11:46 31.96007 31.07590 33069 ft 494 kts 183°
2026-05-05 11:46 31.89161 31.08331 33069 ft 496 kts 182°
2026-05-05 11:47 31.82579 31.09068 33068 ft 496 kts 182°
2026-05-05 11:47 31.75702 31.09819 33071 ft 496 kts 183°
2026-05-05 11:48 31.65370 31.10916 33013 ft 497 kts 183°
2026-05-05 11:48 31.61928 31.11284 32696 ft 490 kts 183°
2026-05-05 11:48 31.58585 31.11653 32375 ft 478 kts 183°
2026-05-05 11:49 31.55330 31.12010 31755 ft 475 kts 183°
2026-05-05 11:49 31.52029 31.12380 31252 ft 470 kts 182°
2026-05-05 11:49 31.48815 31.12854 30692 ft 469 kts 180°
2026-05-05 11:49 31.45605 31.13440 30161 ft 466 kts 179°
2026-05-05 11:50 31.42419 31.14087 29594 ft 462 kts 178°
2026-05-05 11:50 31.39268 31.14747 29067 ft 456 kts 178°
2026-05-05 11:50 31.36160 31.15388 28607 ft 449 kts 179°
2026-05-05 11:50 31.33093 31.15996 28116 ft 444 kts 179°
2026-05-05 11:51 31.30062 31.16582 27646 ft 439 kts 179°
2026-05-05 11:51 31.27060 31.17150 27183 ft 435 kts 179°
2026-05-05 11:51 31.24194 31.17683 26748 ft 431 kts 179°
2026-05-05 11:51 31.21334 31.18212 26313 ft 428 kts 179°
2026-05-05 11:52 31.18395 31.18756 25869 ft 425 kts 179°
2026-05-05 11:52 31.15480 31.19297 25430 ft 423 kts 178°
2026-05-05 11:52 31.12613 31.19828 24984 ft 421 kts 179°
2026-05-05 11:52 31.09727 31.20362 24558 ft 419 kts 178°
2026-05-05 11:53 31.06850 31.20894 24151 ft 418 kts 178°
2026-05-05 11:53 31.03991 31.21422 23733 ft 416 kts 178°
2026-05-05 11:53 31.01139 31.21950 23270 ft 414 kts 178°
2026-05-05 11:53 30.98302 31.22476 22788 ft 412 kts 178°
2026-05-05 11:54 30.95484 31.22996 22314 ft 409 kts 178°
2026-05-05 11:54 30.92682 31.23516 21850 ft 406 kts 177°
2026-05-05 11:54 30.89883 31.24034 21368 ft 406 kts 177°
2026-05-05 11:54 30.87100 31.24549 20910 ft 405 kts 177°
2026-05-05 11:55 30.84327 31.25062 20467 ft 402 kts 177°
2026-05-05 11:55 30.81568 31.25570 19958 ft 401 kts 177°
2026-05-05 11:55 30.78821 31.26075 19461 ft 399 kts 177°
2026-05-05 11:55 30.76085 31.26578 18967 ft 397 kts 177°
2026-05-05 11:56 30.73368 31.27080 18493 ft 394 kts 176°
2026-05-05 11:56 30.70667 31.27581 17957 ft 392 kts 176°
2026-05-05 11:56 30.67983 31.28080 17413 ft 389 kts 176°
2026-05-05 11:56 30.65316 31.28574 16870 ft 387 kts 176°
2026-05-05 11:57 30.62668 31.29063 16330 ft 384 kts 176°
2026-05-05 11:57 30.60077 31.29542 15813 ft 381 kts 175°
2026-05-05 11:57 30.57448 31.30029 15189 ft 372 kts 175°
2026-05-05 11:57 30.54944 31.30464 14534 ft 363 kts 179°
2026-05-05 11:58 30.52498 31.30234 13879 ft 347 kts 200°
2026-05-05 11:58 30.50220 31.29324 13162 ft 348 kts 205°
2026-05-05 11:58 30.47957 31.28317 12678 ft 345 kts 205°
2026-05-05 11:58 30.45742 31.27330 12029 ft 336 kts 205°
2026-05-05 11:59 30.43557 31.26359 11288 ft 337 kts 205°
2026-05-05 11:59 30.41443 31.25425 11112 ft 313 kts 205°
2026-05-05 11:59 30.39444 31.24549 10672 ft 302 kts 205°
2026-05-05 11:59 30.37493 31.23688 10100 ft 299 kts 205°
2026-05-05 12:00 30.35560 31.22828 9439 ft 297 kts 205°
2026-05-05 12:00 30.33640 31.21968 8807 ft 294 kts 205°
2026-05-05 12:00 30.31747 31.21108 8210 ft 290 kts 205°
2026-05-05 12:00 30.29877 31.20252 7626 ft 287 kts 205°
2026-05-05 12:01 30.28064 31.19410 7084 ft 283 kts 205°
2026-05-05 12:01 30.26250 31.18556 6560 ft 282 kts 205°
2026-05-05 12:01 30.24434 31.17709 6259 ft 280 kts 205°
2026-05-05 12:01 30.22639 31.16865 6076 ft 277 kts 205°
2026-05-05 12:02 30.20842 31.16043 6072 ft 279 kts 205°
2026-05-05 12:02 30.19033 31.15217 6078 ft 280 kts 204°
2026-05-05 12:02 30.17222 31.14365 6074 ft 281 kts 205°
2026-05-05 12:02 30.15414 31.13519 5777 ft 281 kts 205°
2026-05-05 12:03 30.13613 31.12666 5492 ft 278 kts 205°
2026-05-05 12:03 30.11832 31.11826 5209 ft 275 kts 205°
2026-05-05 12:03 30.10051 31.11006 4940 ft 275 kts 205°
2026-05-05 12:03 30.08282 31.10197 4668 ft 272 kts 205°
2026-05-05 12:04 30.06520 31.09405 4356 ft 272 kts 202°
2026-05-05 12:04 30.04641 31.09139 4059 ft 277 kts 175°
2026-05-05 12:04 30.02822 31.09895 3720 ft 282 kts 150°
2026-05-05 12:04 30.01186 31.11165 3402 ft 284 kts 145°
2026-05-05 12:05 29.99586 31.12494 3115 ft 283 kts 145°
2026-05-05 12:05 29.97998 31.13825 2833 ft 281 kts 144°
2026-05-05 12:05 29.96660 31.15406 2566 ft 279 kts 123°
2026-05-05 12:05 29.95809 31.17403 2495 ft 277 kts 107°
2026-05-05 12:06 29.95465 31.19563 2503 ft 272 kts 89°
2026-05-05 12:06 29.95631 31.21729 2505 ft 272 kts 73°
2026-05-05 12:06 29.96283 31.23757 2500 ft 268 kts 57°
2026-05-05 12:06 29.97359 31.25498 2505 ft 265 kts 46°
2026-05-05 12:07 29.98571 31.27101 2504 ft 265 kts 45°
2026-05-05 12:07 29.99754 31.28669 2504 ft 252 kts 46°
2026-05-05 12:07 30.00866 31.30146 2501 ft 235 kts 46°
2026-05-05 12:07 30.01895 31.31514 2498 ft 214 kts 46°
2026-05-05 12:08 30.02826 31.32750 2485 ft 199 kts 45°
2026-05-05 12:08 30.03403 31.33517 2340 ft 187 kts 44°
2026-05-05 12:08 30.04493 31.34963 2024 ft 175 kts 45°
2026-05-05 12:08 30.05265 31.35989 1836 ft 161 kts 45°
2026-05-05 12:09 30.05968 31.36925 1605 ft 149 kts 43°
2026-05-05 12:09 30.06637 31.37804 1414 ft 143 kts 44°
2026-05-05 12:09 30.07291 31.38658 1268 ft 143 kts 45°
2026-05-05 12:09 30.07922 31.39548 1058 ft 144 kts 45°
2026-05-05 12:10 30.08363 31.40135 849 ft 141 kts 45°
2026-05-05 12:10 30.09016 31.40987 583 ft 142 kts 44°
2026-05-05 12:10 30.09671 31.41849 431 ft 144 kts 44°
2026-05-05 12:10 30.10305 31.42661 376 ft 118 kts 46°
2026-05-05 12:11 30.10721 31.43229 373 ft 69 kts 50°
2026-05-05 12:11 30.10991 31.43594 373 ft 57 kts 49°
2026-05-05 12:11 30.11165 31.43830 374 ft 16 kts 50°
2026-05-05 12:11 30.11257 31.43927 373 ft 20 kts 39°
2026-05-05 12:12 30.11344 31.43986 372 ft 11 kts 22°
2026-05-05 12:12 30.11416 31.44022 374 ft 12 kts 23°
2026-05-05 12:12 30.11501 31.44063 374 ft 15 kts 22°
2026-05-05 12:12 30.11588 31.44105 374 ft 8 kts 22°
2026-05-05 12:13 30.11642 31.44085 374 ft 10 kts 307°
2026-05-05 12:13 30.11635 31.43999 374 ft 13 kts 234°
2026-05-05 12:13 30.11570 31.43907 374 ft 16 kts 230°
2026-05-05 12:13 30.11490 31.43797 374 ft 19 kts 230°
2026-05-05 12:14 30.11393 31.43673 374 ft 22 kts 228°
2026-05-05 12:14 30.11286 31.43532 374 ft 21 kts 230°
2026-05-05 12:14 30.11237 31.43449 374 ft 13 kts 264°
2026-05-05 12:14 30.11303 31.43363 374 ft 16 kts 320°
2026-05-05 12:15 30.11395 31.43272 374 ft 19 kts 319°
2026-05-05 12:15 30.11500 31.43166 374 ft 21 kts 318°
2026-05-05 12:15 30.11617 31.43052 374 ft 23 kts 321°
2026-05-05 12:15 30.11747 31.42926 374 ft 25 kts 317°
2026-05-05 12:16 30.11882 31.42782 374 ft 26 kts 319°
2026-05-05 12:16 30.11965 31.42704 375 ft 7 kts 321°
2026-05-05 12:16 30.12014 31.42658 374 ft 12 kts 321°
2026-05-05 12:16 30.12084 31.42591 372 ft 9 kts 318°
2026-05-05 12:17 30.12126 31.42547 374 ft 6 kts 318°
2026-05-05 12:17 30.12164 31.42508 375 ft 9 kts 318°
2026-05-05 12:17 30.12217 31.42451 375 ft 12 kts 309°
2026-05-05 12:17 30.12179 31.42368 375 ft 14 kts 227°
2026-05-05 12:18 30.12106 31.42274 375 ft 17 kts 231°
2026-05-05 12:18 30.12024 31.42159 375 ft 20 kts 227°
2026-05-05 12:18 30.11924 31.42030 375 ft 23 kts 230°
2026-05-05 12:18 30.11819 31.41880 375 ft 25 kts 229°
2026-05-05 12:19 30.11732 31.41768 375 ft 20 kts 228°
2026-05-05 12:19 30.11633 31.41641 375 ft 23 kts 227°
2026-05-05 12:19 30.11524 31.41497 375 ft 25 kts 229°
2026-05-05 12:19 30.11407 31.41341 375 ft 16 kts 229°
2026-05-05 12:20 30.11335 31.41245 375 ft 17 kts 229°
2026-05-05 12:20 30.11252 31.41132 375 ft 20 kts 230°
2026-05-05 12:20 30.11152 31.40997 375 ft 23 kts 229°
2026-05-05 12:20 30.11039 31.40851 375 ft 26 kts 228°
2026-05-05 12:21 30.10958 31.40744 375 ft 18 kts 229°
2026-05-05 12:21 30.10869 31.40625 374 ft 21 kts 230°
2026-05-05 12:21 30.10767 31.40490 374 ft 24 kts 228°
2026-05-05 12:21 30.10701 31.40404 374 ft 11 kts 229°
2026-05-05 12:22 30.10690 31.40320 374 ft 13 kts 320°
2026-05-05 12:22 30.10684 31.40223 374 ft 15 kts 230°
2026-05-05 12:22 30.10607 31.40120 374 ft 18 kts 228°
2026-05-05 12:22 30.10518 31.40003 374 ft 11 kts 229°
2026-05-05 12:23 30.10479 31.39926 374 ft 13 kts 261°
2026-05-05 12:23 30.10542 31.39857 374 ft 15 kts 344°
2026-05-05 12:23 30.10643 31.39826 374 ft 8 kts 346°
2026-05-05 12:23 30.10710 31.39806 374 ft 12 kts 345°
2026-05-05 12:24 30.10769 31.39789 374 ft 9 kts 345°
2026-05-05 12:24 30.10820 31.39775 374 ft 7 kts 354°
2026-05-05 12:24 30.10843 31.39798 374 ft 6 kts 65°
2026-05-05 12:24 30.10854 31.39841 374 ft 5 kts 75°
2026-05-05 12:25 30.10858 31.39859 374 ft 0 kts 75°